contact:dominique.lefevre@mio.osupytheas.fr, maurice.libes@osupytheas.fr, didier.mallarino@osupytheas.fr
Project:EMSO http://www.emso-fr.org/EMSO-France
Depth: 2436.0 m
Title:EMSO Ligure Ouest : Data MII capteur MICROCAT
DateTime_Computer,Latitude,Longitude,Temperature,Conductivity,Pressure,DateTime_Instrument
DateTime_Computer,Latitude,Longitude,degC,S m-1,dbar,DateTime_Instrument
2022-07-10T00:02:25Z,42.805,6.029,13.3031,4.60109,2470.567,2022-7-10T02:04:11Z
2022-07-10T00:05:28Z,42.805,6.029,13.3054,4.60114,2470.53,2022-7-10T02:07:14Z
2022-07-10T00:08:31Z,42.805,6.029,13.3044,4.60109,2470.53,2022-7-10T02:10:17Z
2022-07-10T00:11:34Z,42.805,6.029,13.3031,4.60111,2470.53,2022-7-10T02:13:20Z
2022-07-10T00:14:37Z,42.805,6.029,13.3033,4.60100,2470.544,2022-7-10T02:16:23Z
2022-07-10T00:17:41Z,42.805,6.029,13.3026,4.60089,2470.544,2022-7-10T02:19:26Z
2022-07-10T00:20:44Z,42.805,6.029,13.3036,4.60107,2470.553,2022-7-10T02:22:30Z
2022-07-10T00:23:47Z,42.805,6.029,13.3038,4.60112,2470.567,2022-7-10T02:25:33Z
2022-07-10T00:26:50Z,42.805,6.029,13.3032,4.60110,2470.53,2022-7-10T02:28:36Z
2022-07-10T00:29:53Z,42.805,6.029,13.3043,4.60099,2470.567,2022-7-10T02:31:39Z
2022-07-10T00:32:56Z,42.805,6.029,13.3024,4.60084,2470.591,2022-7-10T02:34:42Z
2022-07-10T00:35:59Z,42.805,6.029,13.3024,4.60101,2470.53,2022-7-10T02:37:45Z
2022-07-10T00:39:02Z,42.805,6.029,13.3033,4.60102,2470.553,2022-7-10T02:40:48Z
2022-07-10T00:42:06Z,42.805,6.029,13.3043,4.60117,2470.591,2022-7-10T02:43:51Z
2022-07-10T00:45:09Z,42.805,6.029,13.3037,4.60107,2470.53,2022-7-10T02:46:55Z
2022-07-10T00:48:12Z,42.805,6.029,13.3033,4.60112,2470.553,2022-7-10T02:49:58Z
2022-07-10T00:51:15Z,42.805,6.029,13.3030,4.60096,2470.577,2022-7-10T02:53:01Z
2022-07-10T00:54:18Z,42.805,6.029,13.3030,4.60107,2470.577,2022-7-10T02:56:04Z
2022-07-10T00:57:21Z,42.805,6.029,13.3036,4.60117,2470.553,2022-7-10T02:59:07Z
2022-07-10T01:00:24Z,42.805,6.029,13.3042,4.60113,2470.604,2022-7-10T03:02:10Z
2022-07-10T01:03:27Z,42.805,6.029,13.3041,4.60119,2470.567,2022-7-10T03:05:13Z
2022-07-10T01:06:31Z,42.805,6.029,13.3017,4.60081,2470.567,2022-7-10T03:08:16Z
2022-07-10T01:09:34Z,42.805,6.029,13.3021,4.60080,2470.577,2022-7-10T03:11:19Z
2022-07-10T01:12:37Z,42.805,6.029,13.3036,4.60088,2470.553,2022-7-10T03:14:23Z
2022-07-10T01:15:40Z,42.805,6.029,13.3029,4.60099,2470.553,2022-7-10T03:17:26Z
2022-07-10T01:18:43Z,42.805,6.029,13.3031,4.60121,2470.553,2022-7-10T03:20:29Z
2022-07-10T01:21:46Z,42.805,6.029,13.3025,4.60097,2470.591,2022-7-10T03:23:32Z
2022-07-10T01:24:49Z,42.805,6.029,13.3028,4.60100,2470.53,2022-7-10T03:26:35Z
2022-07-10T01:27:52Z,42.805,6.029,13.3044,4.60107,2470.544,2022-7-10T03:29:38Z
2022-07-10T01:30:56Z,42.805,6.029,13.3047,4.60094,2470.591,2022-7-10T03:32:41Z
2022-07-10T01:33:59Z,42.805,6.029,13.3042,4.60104,2470.577,2022-7-10T03:35:44Z
2022-07-10T01:37:02Z,42.805,6.029,13.3049,4.60106,2470.553,2022-7-10T03:38:48Z
2022-07-10T01:40:05Z,42.805,6.029,13.3034,4.60126,2470.614,2022-7-10T03:41:51Z
2022-07-10T01:43:08Z,42.805,6.029,13.3039,4.60123,2470.577,2022-7-10T03:44:54Z
2022-07-10T01:46:11Z,42.805,6.029,13.3036,4.60114,2470.553,2022-7-10T03:47:57Z
2022-07-10T01:49:14Z,42.805,6.029,13.3064,4.60101,2470.614,2022-7-10T03:51:00Z
2022-07-10T01:52:17Z,42.805,6.029,13.3036,4.60104,2470.577,2022-7-10T03:54:03Z
2022-07-10T01:55:21Z,42.805,6.029,13.3041,4.60115,2470.553,2022-7-10T03:57:06Z
2022-07-10T01:58:24Z,42.805,6.029,13.3036,4.60122,2470.553,2022-7-10T04:00:09Z
2022-07-10T02:01:27Z,42.805,6.029,13.3036,4.60107,2470.614,2022-7-10T04:03:13Z
2022-07-10T02:04:30Z,42.805,6.029,13.3036,4.60106,2470.577,2022-7-10T04:06:16Z
2022-07-10T02:07:33Z,42.805,6.029,13.3046,4.60106,2470.553,2022-7-10T04:09:19Z
2022-07-10T02:10:36Z,42.805,6.029,13.3054,4.60106,2470.6,2022-7-10T04:12:22Z
2022-07-10T02:13:39Z,42.805,6.029,13.3041,4.60111,2470.577,2022-7-10T04:15:25Z
2022-07-10T02:16:42Z,42.805,6.029,13.3039,4.60117,2470.614,2022-7-10T04:18:28Z
2022-07-10T02:19:45Z,42.805,6.029,13.3039,4.60113,2470.614,2022-7-10T04:21:31Z
2022-07-10T02:22:49Z,42.805,6.029,13.3022,4.60114,2470.567,2022-7-10T04:24:34Z
2022-07-10T02:25:52Z,42.805,6.029,13.3039,4.60096,2470.591,2022-7-10T04:27:38Z
2022-07-10T02:28:55Z,42.805,6.029,13.3041,4.60114,2470.614,2022-7-10T04:30:41Z
2022-07-10T02:31:58Z,42.805,6.029,13.3024,4.60107,2470.567,2022-7-10T04:33:44Z
2022-07-10T02:35:01Z,42.805,6.029,13.3039,4.60108,2470.591,2022-7-10T04:36:47Z
2022-07-10T02:38:04Z,42.805,6.029,13.3040,4.60109,2470.6,2022-7-10T04:39:50Z
2022-07-10T02:41:07Z,42.805,6.029,13.3037,4.60122,2470.577,2022-7-10T04:42:53Z
2022-07-10T02:44:10Z,42.805,6.029,13.3032,4.60117,2470.577,2022-7-10T04:45:56Z
2022-07-10T02:47:14Z,42.805,6.029,13.3037,4.60112,2470.614,2022-7-10T04:48:59Z
2022-07-10T02:50:17Z,42.805,6.029,13.3032,4.60097,2470.6,2022-7-10T04:52:02Z
2022-07-10T02:53:20Z,42.805,6.029,13.3042,4.60109,2470.6,2022-7-10T04:55:06Z
2022-07-10T02:56:23Z,42.805,6.029,13.3041,4.60097,2470.637,2022-7-10T04:58:09Z
2022-07-10T02:59:26Z,42.805,6.029,13.3036,4.60111,2470.6,2022-7-10T05:01:12Z
2022-07-10T03:02:29Z,42.805,6.029,13.3039,4.60088,2470.577,2022-7-10T05:04:15Z
2022-07-10T03:05:32Z,42.805,6.029,13.3029,4.60102,2470.577,2022-7-10T05:07:18Z
2022-07-10T03:08:35Z,42.805,6.029,13.3036,4.60112,2470.591,2022-7-10T05:10:21Z
2022-07-10T03:11:39Z,42.805,6.029,13.3043,4.60101,2470.637,2022-7-10T05:13:24Z
2022-07-10T03:14:42Z,42.805,6.029,13.3043,4.60097,2470.577,2022-7-10T05:16:27Z
2022-07-10T03:17:45Z,42.805,6.029,13.3033,4.60110,2470.577,2022-7-10T05:19:31Z
2022-07-10T03:20:48Z,42.805,6.029,13.3048,4.60121,2470.624,2022-7-10T05:22:34Z
2022-07-10T03:23:51Z,42.805,6.029,13.3039,4.60115,2470.6,2022-7-10T05:25:37Z
2022-07-10T03:26:54Z,42.805,6.029,13.3036,4.60080,2470.577,2022-7-10T05:28:40Z
2022-07-10T03:29:57Z,42.805,6.029,13.3044,4.60099,2470.6,2022-7-10T05:31:43Z
2022-07-10T03:33:00Z,42.805,6.029,13.3034,4.60096,2470.577,2022-7-10T05:34:46Z
2022-07-10T03:36:03Z,42.805,6.029,13.3031,4.60102,2470.577,2022-7-10T05:37:49Z
2022-07-10T03:39:07Z,42.805,6.029,13.3023,4.60099,2470.6,2022-7-10T05:40:52Z
2022-07-10T03:42:10Z,42.805,6.029,13.3041,4.60099,2470.624,2022-7-10T05:43:56Z
2022-07-10T03:45:13Z,42.805,6.029,13.3040,4.60097,2470.637,2022-7-10T05:46:59Z
2022-07-10T03:48:16Z,42.805,6.029,13.3025,4.60082,2470.637,2022-7-10T05:50:02Z
2022-07-10T03:51:19Z,42.805,6.029,13.3041,4.60112,2470.6,2022-7-10T05:53:05Z
2022-07-10T03:54:22Z,42.805,6.029,13.3033,4.60119,2470.591,2022-7-10T05:56:08Z
2022-07-10T03:57:25Z,42.805,6.029,13.3040,4.60113,2470.624,2022-7-10T05:59:11Z
2022-07-10T04:00:28Z,42.805,6.029,13.3047,4.60093,2470.577,2022-7-10T06:02:14Z
2022-07-10T04:03:32Z,42.805,6.029,13.3036,4.60090,2470.624,2022-7-10T06:05:17Z
2022-07-10T04:06:35Z,42.805,6.029,13.3027,4.60093,2470.6,2022-7-10T06:08:21Z
2022-07-10T04:09:38Z,42.805,6.029,13.3048,4.60104,2470.6,2022-7-10T06:11:24Z
2022-07-10T04:12:41Z,42.805,6.029,13.3024,4.60102,2470.624,2022-7-10T06:14:27Z
2022-07-10T04:15:44Z,42.805,6.029,13.3043,4.60078,2470.6,2022-7-10T06:17:30Z
2022-07-10T04:18:47Z,42.805,6.029,13.3031,4.60102,2470.624,2022-7-10T06:20:33Z
2022-07-10T04:21:50Z,42.805,6.029,13.3021,4.60102,2470.637,2022-7-10T06:23:36Z
2022-07-10T04:24:53Z,42.805,6.029,13.3040,4.60089,2470.553,2022-7-10T06:26:39Z
2022-07-10T04:27:57Z,42.805,6.029,13.3041,4.60095,2470.637,2022-7-10T06:29:42Z
2022-07-10T04:31:00Z,42.805,6.029,13.3034,4.60110,2470.646,2022-7-10T06:32:45Z
2022-07-10T04:34:03Z,42.805,6.029,13.3040,4.60102,2470.577,2022-7-10T06:35:49Z
2022-07-10T04:37:06Z,42.805,6.029,13.3043,4.60099,2470.577,2022-7-10T06:38:52Z
2022-07-10T04:40:09Z,42.805,6.029,13.3046,4.60107,2470.614,2022-7-10T06:41:55Z
2022-07-10T04:43:12Z,42.805,6.029,13.3032,4.60112,2470.591,2022-7-10T06:44:58Z
2022-07-10T04:46:15Z,42.805,6.029,13.3037,4.60092,2470.6,2022-7-10T06:48:01Z
2022-07-10T04:49:18Z,42.805,6.029,13.3045,4.60101,2470.577,2022-7-10T06:51:04Z
2022-07-10T04:52:22Z,42.805,6.029,13.3046,4.60082,2470.614,2022-7-10T06:54:07Z
2022-07-10T04:55:25Z,42.805,6.029,13.3032,4.60103,2470.591,2022-7-10T06:57:10Z
2022-07-10T04:58:28Z,42.805,6.029,13.3021,4.60099,2470.637,2022-7-10T07:00:14Z
2022-07-10T05:01:31Z,42.805,6.029,13.3036,4.60092,2470.614,2022-7-10T07:03:17Z
2022-07-10T05:04:34Z,42.805,6.029,13.3027,4.60097,2470.6,2022-7-10T07:06:20Z
2022-07-10T05:07:37Z,42.805,6.029,13.3030,4.60092,2470.577,2022-7-10T07:09:23Z
2022-07-10T05:10:40Z,42.805,6.029,13.3043,4.60092,2470.553,2022-7-10T07:12:26Z
2022-07-10T05:13:43Z,42.805,6.029,13.3046,4.60097,2470.591,2022-7-10T07:15:29Z
2022-07-10T05:16:46Z,42.805,6.029,13.3042,4.60113,2470.577,2022-7-10T07:18:32Z
2022-07-10T05:19:50Z,42.805,6.029,13.3036,4.60098,2470.577,2022-7-10T07:21:35Z
2022-07-10T05:22:53Z,42.805,6.029,13.3042,4.60092,2470.567,2022-7-10T07:24:39Z
2022-07-10T05:25:56Z,42.805,6.029,13.3046,4.60098,2470.6,2022-7-10T07:27:42Z
2022-07-10T05:28:59Z,42.805,6.029,13.3034,4.60092,2470.577,2022-7-10T07:30:45Z
2022-07-10T05:32:02Z,42.805,6.029,13.3028,4.60097,2470.577,2022-7-10T07:33:48Z
2022-07-10T05:35:05Z,42.805,6.029,13.3016,4.60101,2470.577,2022-7-10T07:36:51Z
2022-07-10T05:38:08Z,42.805,6.029,13.3021,4.60062,2470.591,2022-7-10T07:39:54Z
2022-07-10T05:41:11Z,42.805,6.029,13.3022,4.60079,2470.591,2022-7-10T07:42:57Z
2022-07-10T05:44:15Z,42.805,6.029,13.3025,4.60087,2470.6,2022-7-10T07:46:00Z
2022-07-10T05:47:18Z,42.805,6.029,13.3028,4.60092,2470.567,2022-7-10T07:49:03Z
2022-07-10T05:50:21Z,42.805,6.029,13.3037,4.60095,2470.544,2022-7-10T07:52:07Z
2022-07-10T05:53:24Z,42.805,6.029,13.3040,4.60091,2470.567,2022-7-10T07:55:10Z
2022-07-10T05:56:27Z,42.805,6.029,13.3036,4.60082,2470.544,2022-7-10T07:58:13Z
2022-07-10T05:59:30Z,42.805,6.029,13.3035,4.60102,2470.567,2022-7-10T08:01:16Z
2022-07-10T06:02:33Z,42.805,6.029,13.3041,4.60117,2470.577,2022-7-10T08:04:19Z
2022-07-10T06:05:36Z,42.805,6.029,13.3045,4.60085,2470.567,2022-7-10T08:07:22Z
2022-07-10T06:08:40Z,42.805,6.029,13.3038,4.60085,2470.53,2022-7-10T08:10:25Z
2022-07-10T06:11:43Z,42.805,6.029,13.3029,4.60097,2470.553,2022-7-10T08:13:28Z
2022-07-10T06:14:46Z,42.805,6.029,13.3028,4.60093,2470.516,2022-7-10T08:16:32Z
2022-07-10T06:17:49Z,42.805,6.029,13.3023,4.60090,2470.591,2022-7-10T08:19:35Z
2022-07-10T06:20:52Z,42.805,6.029,13.3016,4.60074,2470.553,2022-7-10T08:22:38Z
2022-07-10T06:23:55Z,42.805,6.029,13.3024,4.60069,2470.553,2022-7-10T08:25:41Z
2022-07-10T06:26:58Z,42.805,6.029,13.3020,4.60068,2470.553,2022-7-10T08:28:44Z
2022-07-10T06:30:01Z,42.805,6.029,13.3021,4.60087,2470.577,2022-7-10T08:31:47Z
2022-07-10T06:33:05Z,42.805,6.029,13.3028,4.60089,2470.577,2022-7-10T08:34:50Z
2022-07-10T06:36:08Z,42.805,6.029,13.3024,4.60095,2470.553,2022-7-10T08:37:53Z
2022-07-10T06:39:11Z,42.805,6.029,13.3019,4.60099,2470.53,2022-7-10T08:40:57Z
2022-07-10T06:42:14Z,42.805,6.029,13.3021,4.60089,2470.553,2022-7-10T08:44:00Z
2022-07-10T06:45:17Z,42.805,6.029,13.3016,4.60072,2470.553,2022-7-10T08:47:03Z
2022-07-10T06:48:20Z,42.805,6.029,13.3021,4.60084,2470.544,2022-7-10T08:50:06Z
2022-07-10T06:51:23Z,42.805,6.029,13.3018,4.60089,2470.553,2022-7-10T08:53:09Z
2022-07-10T06:54:26Z,42.805,6.029,13.3034,4.60081,2470.544,2022-7-10T08:56:12Z
2022-07-10T06:57:30Z,42.805,6.029,13.3018,4.60092,2470.53,2022-7-10T08:59:15Z
2022-07-10T07:00:33Z,42.805,6.029,13.3017,4.60069,2470.53,2022-7-10T09:02:18Z
2022-07-10T07:03:36Z,42.805,6.029,13.3029,4.60093,2470.53,2022-7-10T09:05:22Z
2022-07-10T07:06:39Z,42.805,6.029,13.3036,4.60075,2470.544,2022-7-10T09:08:25Z
2022-07-10T07:09:42Z,42.805,6.029,13.3031,4.60090,2470.544,2022-7-10T09:11:28Z
2022-07-10T07:12:45Z,42.805,6.029,13.3022,4.60083,2470.544,2022-7-10T09:14:31Z
2022-07-10T07:15:48Z,42.805,6.029,13.3021,4.60081,2470.507,2022-7-10T09:17:34Z
2022-07-10T07:18:51Z,42.805,6.029,13.3015,4.60066,2470.483,2022-7-10T09:20:37Z
2022-07-10T07:21:54Z,42.805,6.029,13.3017,4.60063,2470.497,2022-7-10T09:23:40Z
2022-07-10T07:24:58Z,42.805,6.029,13.3016,4.60067,2470.483,2022-7-10T09:26:43Z
2022-07-10T07:28:01Z,42.805,6.029,13.3022,4.60079,2470.507,2022-7-10T09:29:47Z
2022-07-10T07:31:04Z,42.805,6.029,13.3017,4.60078,2470.483,2022-7-10T09:32:50Z
2022-07-10T07:34:07Z,42.805,6.029,13.3017,4.60062,2470.52,2022-7-10T09:35:53Z
2022-07-10T07:37:10Z,42.805,6.029,13.3015,4.60057,2470.53,2022-7-10T09:38:56Z
2022-07-10T07:40:13Z,42.805,6.029,13.3021,4.60072,2470.553,2022-7-10T09:41:59Z
2022-07-10T07:43:16Z,42.805,6.029,13.3011,4.60063,2470.497,2022-7-10T09:45:02Z
2022-07-10T07:46:19Z,42.805,6.029,13.3026,4.60069,2470.45,2022-7-10T09:48:05Z
2022-07-10T07:49:23Z,42.805,6.029,13.3016,4.60064,2470.437,2022-7-10T09:51:08Z
2022-07-10T07:52:26Z,42.805,6.029,13.3020,4.60070,2470.474,2022-7-10T09:54:11Z
2022-07-10T07:55:29Z,42.805,6.029,13.3015,4.60069,2470.483,2022-7-10T09:57:15Z
2022-07-10T07:58:32Z,42.805,6.029,13.3017,4.60059,2470.483,2022-7-10T10:00:18Z
2022-07-10T08:01:35Z,42.805,6.029,13.3016,4.60073,2470.483,2022-7-10T10:03:21Z
2022-07-10T08:04:38Z,42.805,6.029,13.3013,4.60062,2470.46,2022-7-10T10:06:24Z
2022-07-10T08:07:41Z,42.805,6.029,13.3024,4.60069,2470.497,2022-7-10T10:09:27Z
2022-07-10T08:10:44Z,42.805,6.029,13.3014,4.60057,2470.46,2022-7-10T10:12:30Z
2022-07-10T08:13:48Z,42.805,6.029,13.3022,4.60079,2470.497,2022-7-10T10:15:33Z
2022-07-10T08:16:51Z,42.805,6.029,13.3011,4.60063,2470.474,2022-7-10T10:18:36Z
2022-07-10T08:19:54Z,42.805,6.029,13.3014,4.60062,2470.474,2022-7-10T10:21:40Z
2022-07-10T08:22:57Z,42.805,6.029,13.3014,4.60061,2470.483,2022-7-10T10:24:43Z
2022-07-10T08:26:00Z,42.805,6.029,13.3015,4.60061,2470.46,2022-7-10T10:27:46Z
2022-07-10T08:29:03Z,42.805,6.029,13.3016,4.60077,2470.46,2022-7-10T10:30:49Z
2022-07-10T08:32:06Z,42.805,6.029,13.3016,4.60057,2470.437,2022-7-10T10:33:52Z
2022-07-10T08:35:09Z,42.805,6.029,13.3021,4.60062,2470.437,2022-7-10T10:36:55Z
2022-07-10T08:38:13Z,42.805,6.029,13.3019,4.60079,2470.437,2022-7-10T10:39:58Z
2022-07-10T08:41:16Z,42.805,6.029,13.3015,4.60072,2470.45,2022-7-10T10:43:01Z
2022-07-10T08:44:19Z,42.805,6.029,13.3015,4.60061,2470.437,2022-7-10T10:46:05Z
2022-07-10T08:47:22Z,42.805,6.029,13.3014,4.60064,2470.46,2022-7-10T10:49:08Z
2022-07-10T08:50:25Z,42.805,6.029,13.3021,4.60062,2470.437,2022-7-10T10:52:11Z
2022-07-10T08:53:28Z,42.805,6.029,13.3021,4.60069,2470.46,2022-7-10T10:55:14Z
2022-07-10T08:56:31Z,42.805,6.029,13.3024,4.60092,2470.474,2022-7-10T10:58:17Z
2022-07-10T08:59:34Z,42.805,6.029,13.3026,4.60079,2470.474,2022-7-10T11:01:20Z
2022-07-10T09:02:38Z,42.805,6.029,13.3011,4.60059,2470.437,2022-7-10T11:04:23Z
2022-07-10T09:05:41Z,42.805,6.029,13.3013,4.60060,2470.413,2022-7-10T11:07:27Z
2022-07-10T09:08:44Z,42.805,6.029,13.3018,4.60062,2470.437,2022-7-10T11:10:30Z
2022-07-10T09:11:47Z,42.805,6.029,13.3021,4.60069,2470.413,2022-7-10T11:13:33Z
2022-07-10T09:14:50Z,42.805,6.029,13.3010,4.60063,2470.437,2022-7-10T11:16:36Z
2022-07-10T09:17:53Z,42.805,6.029,13.3013,4.60069,2470.437,2022-7-10T11:19:39Z
2022-07-10T09:20:56Z,42.805,6.029,13.3021,4.60066,2470.46,2022-7-10T11:22:42Z
2022-07-10T09:23:59Z,42.805,6.029,13.3015,4.60098,2470.427,2022-7-10T11:25:45Z
2022-07-10T09:27:03Z,42.805,6.029,13.3013,4.60087,2470.413,2022-7-10T11:28:48Z
2022-07-10T09:30:06Z,42.805,6.029,13.3017,4.60063,2470.45,2022-7-10T11:31:52Z
2022-07-10T09:33:09Z,42.805,6.029,13.3011,4.60057,2470.45,2022-7-10T11:34:55Z
2022-07-10T09:36:12Z,42.805,6.029,13.3019,4.60068,2470.427,2022-7-10T11:37:58Z
2022-07-10T09:39:15Z,42.805,6.029,13.3034,4.60074,2470.39,2022-7-10T11:41:01Z
2022-07-10T09:42:18Z,42.805,6.029,13.3022,4.60073,2470.39,2022-7-10T11:44:04Z
2022-07-10T09:45:21Z,42.805,6.029,13.3032,4.60066,2470.39,2022-7-10T11:47:07Z
2022-07-10T09:48:24Z,42.805,6.029,13.3018,4.60064,2470.366,2022-7-10T11:50:10Z
2022-07-10T09:51:28Z,42.805,6.029,13.3011,4.60073,2470.39,2022-7-10T11:53:13Z
2022-07-10T09:54:31Z,42.805,6.029,13.3019,4.60065,2470.39,2022-7-10T11:56:17Z
2022-07-10T09:57:34Z,42.805,6.029,13.3013,4.60068,2470.38,2022-7-10T11:59:20Z
2022-07-10T10:00:37Z,42.805,6.029,13.3012,4.60058,2470.404,2022-7-10T12:02:23Z
2022-07-10T10:03:40Z,42.805,6.029,13.3024,4.60060,2470.427,2022-7-10T12:05:26Z
2022-07-10T10:06:43Z,42.805,6.029,13.3020,4.60063,2470.404,2022-7-10T12:08:29Z
2022-07-10T10:09:46Z,42.805,6.029,13.3021,4.60068,2470.38,2022-7-10T12:11:32Z
2022-07-10T10:12:49Z,42.805,6.029,13.3016,4.60059,2470.39,2022-7-10T12:14:35Z
2022-07-10T10:15:53Z,42.805,6.029,13.3018,4.60064,2470.38,2022-7-10T12:17:38Z
2022-07-10T10:18:56Z,42.805,6.029,13.3012,4.60066,2470.366,2022-7-10T12:20:42Z
2022-07-10T10:21:59Z,42.805,6.029,13.3012,4.60055,2470.413,2022-7-10T12:23:45Z
2022-07-10T10:25:02Z,42.805,6.029,13.3014,4.60059,2470.39,2022-7-10T12:26:48Z
2022-07-10T10:28:05Z,42.805,6.029,13.3016,4.60062,2470.39,2022-7-10T12:29:51Z
2022-07-10T10:31:08Z,42.805,6.029,13.3015,4.60059,2470.404,2022-7-10T12:32:54Z
2022-07-10T10:34:11Z,42.805,6.029,13.3031,4.60080,2470.427,2022-7-10T12:35:57Z
2022-07-10T10:37:14Z,42.805,6.029,13.3012,4.60054,2470.413,2022-7-10T12:39:00Z
2022-07-10T10:40:18Z,42.805,6.029,13.3025,4.60065,2470.404,2022-7-10T12:42:03Z
2022-07-10T10:43:21Z,42.805,6.029,13.3019,4.60057,2470.427,2022-7-10T12:45:07Z
2022-07-10T10:46:24Z,42.805,6.029,13.3021,4.60064,2470.404,2022-7-10T12:48:10Z
2022-07-10T10:49:27Z,42.805,6.029,13.3019,4.60071,2470.39,2022-7-10T12:51:13Z
2022-07-10T10:52:30Z,42.805,6.029,13.3011,4.60053,2470.366,2022-7-10T12:54:16Z
2022-07-10T10:55:33Z,42.805,6.029,13.3018,4.60058,2470.366,2022-7-10T12:57:19Z
2022-07-10T10:58:36Z,42.805,6.029,13.3011,4.60055,2470.39,2022-7-10T13:00:22Z
2022-07-10T11:01:39Z,42.805,6.029,13.3013,4.60060,2470.39,2022-7-10T13:03:25Z
2022-07-10T11:04:43Z,42.805,6.029,13.3014,4.60060,2470.404,2022-7-10T13:06:28Z
2022-07-10T11:07:46Z,42.805,6.029,13.3014,4.60057,2470.366,2022-7-10T13:09:32Z
2022-07-10T11:10:49Z,42.805,6.029,13.3014,4.60053,2470.413,2022-7-10T13:12:35Z
2022-07-10T11:13:52Z,42.805,6.029,13.3011,4.60059,2470.38,2022-7-10T13:15:38Z
2022-07-10T11:16:55Z,42.805,6.029,13.3021,4.60067,2470.404,2022-7-10T13:18:41Z
2022-07-10T11:19:58Z,42.805,6.029,13.3015,4.60059,2470.366,2022-7-10T13:21:44Z
2022-07-10T11:23:01Z,42.805,6.029,13.3013,4.60083,2470.413,2022-7-10T13:24:47Z
2022-07-10T11:26:04Z,42.805,6.029,13.3011,4.60062,2470.413,2022-7-10T13:27:50Z
2022-07-10T11:29:08Z,42.805,6.029,13.3012,4.60060,2470.366,2022-7-10T13:30:53Z
2022-07-10T11:32:11Z,42.805,6.029,13.3021,4.60090,2470.366,2022-7-10T13:33:57Z
2022-07-10T11:35:14Z,42.805,6.029,13.3023,4.60086,2470.366,2022-7-10T13:37:00Z
2022-07-10T11:38:17Z,42.805,6.029,13.3018,4.60070,2470.404,2022-7-10T13:40:03Z
2022-07-10T11:41:20Z,42.805,6.029,13.3011,4.60061,2470.427,2022-7-10T13:43:06Z
2022-07-10T11:44:23Z,42.805,6.029,13.3016,4.60082,2470.39,2022-7-10T13:46:09Z
2022-07-10T11:47:26Z,42.805,6.029,13.3018,4.60076,2470.38,2022-7-10T13:49:12Z
2022-07-10T11:50:30Z,42.805,6.029,13.3017,4.60089,2470.366,2022-7-10T13:52:15Z
2022-07-10T11:53:33Z,42.805,6.029,13.3020,4.60079,2470.39,2022-7-10T13:55:18Z
2022-07-10T11:56:36Z,42.805,6.029,13.3014,4.60060,2470.366,2022-7-10T13:58:22Z
2022-07-10T11:59:39Z,42.805,6.029,13.3012,4.60062,2470.39,2022-7-10T14:01:25Z
2022-07-10T12:02:42Z,42.805,6.029,13.3011,4.60074,2470.413,2022-7-10T14:04:28Z
2022-07-10T12:05:45Z,42.805,6.029,13.3026,4.60066,2470.38,2022-7-10T14:07:31Z
2022-07-10T12:08:48Z,42.805,6.029,13.3016,4.60087,2470.39,2022-7-10T14:10:34Z
2022-07-10T12:11:51Z,42.805,6.029,13.3041,4.60085,2470.38,2022-7-10T14:13:37Z
2022-07-10T12:14:55Z,42.805,6.029,13.3016,4.60073,2470.38,2022-7-10T14:16:40Z
2022-07-10T12:17:58Z,42.805,6.029,13.3016,4.60061,2470.39,2022-7-10T14:19:43Z
2022-07-10T12:21:01Z,42.805,6.029,13.3023,4.60064,2470.404,2022-7-10T14:22:47Z
2022-07-10T12:24:04Z,42.805,6.029,13.3018,4.60067,2470.413,2022-7-10T14:25:50Z
2022-07-10T12:27:07Z,42.805,6.029,13.3033,4.60064,2470.39,2022-7-10T14:28:53Z
2022-07-10T12:30:10Z,42.805,6.029,13.3032,4.60085,2470.39,2022-7-10T14:31:56Z
2022-07-10T12:33:13Z,42.805,6.029,13.3026,4.60096,2470.366,2022-7-10T14:34:59Z
2022-07-10T12:36:16Z,42.805,6.029,13.3024,4.60081,2470.404,2022-7-10T14:38:02Z
2022-07-10T12:39:20Z,42.805,6.029,13.3021,4.60086,2470.366,2022-7-10T14:41:05Z
2022-07-10T12:42:23Z,42.805,6.029,13.3012,4.60064,2470.38,2022-7-10T14:44:08Z
2022-07-10T12:45:26Z,42.805,6.029,13.3024,4.60088,2470.38,2022-7-10T14:47:12Z
2022-07-10T12:48:29Z,42.805,6.029,13.3017,4.60084,2470.404,2022-7-10T14:50:15Z
2022-07-10T12:51:32Z,42.805,6.029,13.3033,4.60101,2470.39,2022-7-10T14:53:18Z
2022-07-10T12:54:35Z,42.805,6.029,13.3036,4.60102,2470.39,2022-7-10T14:56:21Z
2022-07-10T12:57:38Z,42.805,6.029,13.3030,4.60100,2470.404,2022-7-10T14:59:24Z
2022-07-10T13:00:41Z,42.805,6.029,13.3027,4.60097,2470.413,2022-7-10T15:02:27Z
2022-07-10T13:03:45Z,42.805,6.029,13.3019,4.60074,2470.404,2022-7-10T15:05:30Z
2022-07-10T13:06:48Z,42.805,6.029,13.3033,4.60089,2470.366,2022-7-10T15:08:33Z
2022-07-10T13:09:51Z,42.805,6.029,13.3016,4.60089,2470.427,2022-7-10T15:11:37Z
2022-07-10T13:12:54Z,42.805,6.029,13.3031,4.60092,2470.404,2022-7-10T15:14:40Z
2022-07-10T13:15:57Z,42.805,6.029,13.3034,4.60094,2470.427,2022-7-10T15:17:43Z
2022-07-10T13:19:00Z,42.805,6.029,13.3039,4.60074,2470.404,2022-7-10T15:20:46Z
2022-07-10T13:22:03Z,42.805,6.029,13.3031,4.60083,2470.39,2022-7-10T15:23:49Z
2022-07-10T13:25:06Z,42.805,6.029,13.3036,4.60099,2470.404,2022-7-10T15:26:52Z
2022-07-10T13:28:10Z,42.805,6.029,13.3030,4.60072,2470.404,2022-7-10T15:29:55Z
2022-07-10T13:31:13Z,42.805,6.029,13.3043,4.60087,2470.427,2022-7-10T15:32:58Z
2022-07-10T13:34:16Z,42.805,6.029,13.3036,4.60079,2470.45,2022-7-10T15:36:02Z
2022-07-10T13:37:19Z,42.805,6.029,13.3029,4.60089,2470.38,2022-7-10T15:39:05Z
2022-07-10T13:40:22Z,42.805,6.029,13.3024,4.60110,2470.366,2022-7-10T15:42:08Z
2022-07-10T13:43:25Z,42.805,6.029,13.3030,4.60105,2470.427,2022-7-10T15:45:11Z
2022-07-10T13:46:28Z,42.805,6.029,13.3030,4.60089,2470.437,2022-7-10T15:48:14Z
2022-07-10T13:49:31Z,42.805,6.029,13.3034,4.60077,2470.39,2022-7-10T15:51:17Z
2022-07-10T13:52:35Z,42.805,6.029,13.3031,4.60080,2470.437,2022-7-10T15:54:20Z
2022-07-10T13:55:38Z,42.805,6.029,13.3016,4.60104,2470.437,2022-7-10T15:57:23Z
2022-07-10T13:58:41Z,42.805,6.029,13.3024,4.60099,2470.413,2022-7-10T16:00:27Z
2022-07-10T14:01:44Z,42.805,6.029,13.3034,4.60105,2470.427,2022-7-10T16:03:30Z
2022-07-10T14:04:47Z,42.805,6.029,13.3040,4.60114,2470.427,2022-7-10T16:06:33Z
2022-07-10T14:07:50Z,42.805,6.029,13.3018,4.60101,2470.427,2022-7-10T16:09:36Z
2022-07-10T14:10:53Z,42.805,6.029,13.3041,4.60102,2470.427,2022-7-10T16:12:39Z
2022-07-10T14:13:56Z,42.805,6.029,13.3046,4.60108,2470.39,2022-7-10T16:15:42Z
2022-07-10T14:17:00Z,42.805,6.029,13.3041,4.60102,2470.413,2022-7-10T16:18:45Z
2022-07-10T14:20:03Z,42.805,6.029,13.3037,4.60117,2470.45,2022-7-10T16:21:48Z
2022-07-10T14:23:06Z,42.805,6.029,13.3042,4.60121,2470.437,2022-7-10T16:24:52Z
2022-07-10T14:26:09Z,42.805,6.029,13.3042,4.60104,2470.437,2022-7-10T16:27:55Z
2022-07-10T14:29:12Z,42.805,6.029,13.3031,4.60098,2470.46,2022-7-10T16:30:58Z
2022-07-10T14:32:15Z,42.805,6.029,13.3028,4.60108,2470.413,2022-7-10T16:34:01Z
2022-07-10T14:35:18Z,42.805,6.029,13.3016,4.60074,2470.497,2022-7-10T16:37:04Z
2022-07-10T14:38:21Z,42.805,6.029,13.3036,4.60088,2470.46,2022-7-10T16:40:07Z
2022-07-10T14:41:25Z,42.805,6.029,13.3041,4.60102,2470.427,2022-7-10T16:43:10Z
2022-07-10T14:44:28Z,42.805,6.029,13.3043,4.60098,2470.437,2022-7-10T16:46:13Z
2022-07-10T14:47:31Z,42.805,6.029,13.3031,4.60114,2470.437,2022-7-10T16:49:17Z
2022-07-10T14:50:34Z,42.805,6.029,13.3034,4.60121,2470.437,2022-7-10T16:52:20Z
2022-07-10T14:53:37Z,42.805,6.029,13.3031,4.60107,2470.474,2022-7-10T16:55:23Z
2022-07-10T14:56:40Z,42.805,6.029,13.3029,4.60115,2470.46,2022-7-10T16:58:26Z
2022-07-10T14:59:43Z,42.805,6.029,13.3022,4.60121,2470.437,2022-7-10T17:01:29Z
2022-07-10T15:02:46Z,42.805,6.029,13.3043,4.60114,2470.46,2022-7-10T17:04:32Z
2022-07-10T15:05:50Z,42.805,6.029,13.3041,4.60108,2470.497,2022-7-10T17:07:35Z
2022-07-10T15:08:53Z,42.805,6.029,13.3039,4.60105,2470.46,2022-7-10T17:10:39Z
2022-07-10T15:11:56Z,42.805,6.029,13.3046,4.60094,2470.46,2022-7-10T17:13:42Z
2022-07-10T15:14:59Z,42.805,6.029,13.3036,4.60104,2470.45,2022-7-10T17:16:45Z